| time (UTC) | temp C | wind direction | speed KPH | gust KPH | rain 1hr cm | rain 24hr cm | rain mn cm | humidity % | barometer mb |
| 20260508100405 | 17 | 188 | 8.0 | 29.0 | 0.00 | 0.08 | 0.00 | 78 | 1012.7 |
| 20260508094405 | 17 | 126 | 9.7 | 32.2 | 0.00 | 0.08 | 0.00 | 77 | 1012.5 |
| 20260508093904 | 18 | 12 | 14.5 | 32.2 | 0.00 | 0.08 | 0.00 | 76 | 1012.4 |
| 20260508093404 | 18 | 42 | 19.3 | 38.6 | 0.00 | 0.08 | 0.00 | 75 | 1012.3 |
| 20260508091905 | 17 | 157 | 16.1 | 25.7 | 0.00 | 0.08 | 0.00 | 70 | 1012.3 |
| 20260508080904 | 16 | 106 | 11.3 | 19.3 | 0.00 | 0.08 | 0.00 | 74 | 1012.3 |
| 20260508080405 | 16 | 107 | 9.7 | 19.3 | 0.00 | 0.08 | 0.00 | 73 | 1012.3 |
| 20260508074905 | 16 | 164 | 3.2 | 8.0 | 0.00 | 0.08 | 0.00 | 74 | 1012.4 |
| 20260508073905 | 15 | 300 | 3.2 | 4.8 | 0.00 | 0.08 | 0.00 | 76 | 1012.5 |
| 20260508071904 | 14 | 176 | 1.6 | 3.2 | 0.00 | 0.08 | 0.00 | 78 | 1012.4 |
| 20260508071405 | 14 | 268 | 0.0 | 1.6 | 0.00 | 0.08 | 0.00 | 78 | 1012.6 |
| 20260508070405 | 13 | 39 | 0.0 | 4.8 | 0.00 | 0.08 | 0.00 | 79 | 1012.6 |
| 20260508061405 | 12 | 296 | 3.2 | 4.8 | 0.00 | 0.08 | 0.00 | 83 | 1012.1 |
| 20260508060904 | 12 | 282 | 1.6 | 4.8 | 0.00 | 0.08 | 0.00 | 84 | 1012.2 |
| 20260508060405 | 12 | 175 | 3.2 | 9.7 | 0.00 | 0.08 | 0.00 | 83 | 1012.0 |
| 20260508054904 | 12 | 253 | 4.8 | 11.3 | 0.00 | 0.08 | 0.00 | 82 | 1011.5 |
| 20260508054405 | 12 | 238 | 4.8 | 11.3 | 0.00 | 0.08 | 0.00 | 81 | 1011.6 |
| 20260508053405 | 11 | 355 | 6.4 | 11.3 | 0.00 | 0.08 | 0.00 | 82 | 1011.2 |
| 20260508051405 | 12 | 158 | 3.2 | 8.0 | 0.00 | 0.08 | 0.00 | 82 | 1011.7 |
| 20260508050404 | 12 | 246 | 6.4 | 11.3 | 0.00 | 0.08 | 0.00 | 81 | 1011.7 |
| 20260508044904 | 12 | 254 | 4.8 | 4.8 | 0.00 | 0.08 | 0.00 | 79 | 1011.4 |
| 20260508043904 | 12 | 327 | 3.2 | 4.8 | 0.00 | 0.08 | 0.00 | 79 | 1011.3 |
| 20260508040404 | 12 | 263 | 3.2 | 4.8 | 0.00 | 0.08 | 0.00 | 82 | 1011.7 |
| 20260508033904 | 12 | 280 | 3.2 | 4.8 | 0.00 | 0.08 | 0.00 | 85 | 1011.8 |
| 20260508031904 | 12 | 299 | 3.2 | 4.8 | 0.00 | 0.08 | 0.00 | 81 | 1011.8 |
| 20260508031404 | 12 | 298 | 3.2 | 4.8 | 0.00 | 0.08 | 0.00 | 81 | 1011.6 |
| 20260508030905 | 12 | 310 | 1.6 | 4.8 | 0.00 | 0.08 | 0.00 | 82 | 1011.6 |
| 20260508023904 | 12 | 0 | 3.2 | 4.8 | 0.00 | 0.08 | 0.00 | 83 | 1011.8 |
| 20260508021905 | 13 | 292 | 0.0 | 1.6 | 0.00 | 0.08 | 0.00 | 83 | 1011.8 |
| 20260508020405 | 12 | 306 | 1.6 | 4.8 | 0.00 | 0.08 | 0.00 | 82 | 1011.6 |
| 20260508013905 | 13 | 276 | 3.2 | 4.8 | 0.00 | 0.08 | 0.00 | 81 | 1011.3 |
| 20260508011904 | 13 | 250 | 3.2 | 4.8 | 0.00 | 0.08 | 0.00 | 78 | 1011.9 |
| 20260508004905 | 13 | 285 | 3.2 | 4.8 | 0.00 | 0.08 | 0.00 | 74 | 1012.1 |
| 20260508004405 | 13 | 283 | 3.2 | 4.8 | 0.00 | 0.08 | 0.00 | 73 | 1012.2 |
| 20260508001404 | 13 | 300 | 0.0 | 4.8 | 0.00 | 0.08 | 0.00 | 74 | 1012.5 |
| 20260508000405 | 13 | 295 | 3.2 | 4.8 | 0.00 | 0.08 | 0.00 | 72 | 1012.7 |
| 20260507234405 | 13 | 327 | 0.0 | 1.6 | 0.00 | 0.08 | 0.00 | 73 | 1012.9 |
| 20260507233405 | 13 | 327 | 0.0 | 3.2 | 0.00 | 0.08 | 0.00 | 73 | 1013.0 |
| 20260507231404 | 13 | 11 | 1.6 | 3.2 | 0.00 | 0.08 | 0.00 | 70 | 1013.0 |
| 20260507223904 | 14 | 67 | 4.8 | 8.0 | 0.00 | 0.08 | 0.00 | 67 | 1012.8 |
| 20260507214405 | 15 | 244 | 1.6 | 4.8 | 0.00 | 0.08 | 0.08 | 71 | 1012.3 |
| 20260507213904 | 15 | 256 | 4.8 | 4.8 | 0.00 | 0.08 | 0.08 | 69 | 1012.2 |
| 20260507213405 | 15 | 247 | 3.2 | 4.8 | 0.00 | 0.08 | 0.08 | 66 | 1012.1 |
| 20260507211904 | 15 | 308 | 0.0 | 0.0 | 0.00 | 0.08 | 0.08 | 64 | 1012.3 |
| 20260507211404 | 15 | 311 | 0.0 | 0.0 | 0.00 | 0.08 | 0.08 | 63 | 1012.3 |
| 20260507210404 | 15 | 339 | 0.0 | 3.2 | 0.00 | 0.08 | 0.08 | 63 | 1012.2 |
| 20260507204904 | 15 | 356 | 1.6 | 4.8 | 0.00 | 0.08 | 0.08 | 61 | 1012.0 |
| 20260507204405 | 15 | 305 | 1.6 | 3.2 | 0.00 | 0.08 | 0.08 | 61 | 1012.0 |
| 20260507203405 | 15 | 297 | 3.2 | 4.8 | 0.00 | 0.08 | 0.08 | 62 | 1011.7 |
| 20260507201405 | 16 | 282 | 3.2 | 4.8 | 0.00 | 0.08 | 0.08 | 62 | 1011.6 |
| 20260507200404 | 16 | 245 | 4.8 | 4.8 | 0.00 | 0.08 | 0.08 | 60 | 1011.5 |
| 20260507194904 | 16 | 92 | 3.2 | 4.8 | 0.00 | 0.08 | 0.08 | 58 | 1011.3 |
| 20260507193404 | 16 | 106 | 8.0 | 11.3 | 0.00 | 0.08 | 0.08 | 57 | 1011.2 |
| 20260507190904 | 16 | 104 | 9.7 | 12.9 | 0.00 | 0.08 | 0.08 | 57 | 1010.9 |
| 20260507190404 | 16 | 108 | 11.3 | 12.9 | 0.00 | 0.08 | 0.08 | 57 | 1011.0 |
| 20260507184904 | 16 | 115 | 8.0 | 11.3 | 0.00 | 0.08 | 0.08 | 58 | 1010.9 |
| 20260507184404 | 16 | 98 | 8.0 | 12.9 | 0.00 | 0.08 | 0.08 | 59 | 1010.8 |
| 20260507183404 | 16 | 110 | 9.7 | 19.3 | 0.00 | 0.08 | 0.08 | 59 | 1010.7 |
| 20260507181404 | 17 | 2 | 6.4 | 14.5 | 0.00 | 0.08 | 0.08 | 56 | 1010.5 |
| 20260507174405 | 18 | 113 | 11.3 | 16.1 | 0.00 | 0.08 | 0.08 | 47 | 1010.1 |
| 20260507173905 | 18 | 149 | 8.0 | 14.5 | 0.00 | 0.08 | 0.08 | 48 | 1010.0 |
| 20260507173405 | 18 | 131 | 3.2 | 19.3 | 0.00 | 0.08 | 0.08 | 49 | 1010.1 |
| 20260507171905 | 18 | 143 | 4.8 | 22.5 | 0.00 | 0.08 | 0.08 | 49 | 1010.0 |
| 20260507170905 | 18 | 156 | 3.2 | 22.5 | 0.00 | 0.08 | 0.08 | 49 | 1009.9 |
| 20260507170404 | 18 | 141 | 9.7 | 27.4 | 0.00 | 0.08 | 0.08 | 49 | 1009.9 |
| 20260507164905 | 18 | 141 | 14.5 | 27.4 | 0.00 | 0.08 | 0.08 | 49 | 1009.8 |
| 20260507164404 | 18 | 101 | 12.9 | 27.4 | 0.00 | 0.08 | 0.08 | 48 | 1009.9 |
| 20260507161405 | 19 | 115 | 14.5 | 20.9 | 0.00 | 0.08 | 0.08 | 51 | 1009.7 |
| 20260507154904 | 20 | 99 | 11.3 | 19.3 | 0.00 | 0.08 | 0.08 | 48 | 1009.7 |
| 20260507151404 | 20 | 37 | 3.2 | 9.7 | 0.00 | 0.08 | 0.08 | 50 | 1009.9 |
| 20260507150404 | 19 | 205 | 8.0 | 25.7 | 0.00 | 0.08 | 0.08 | 53 | 1010.0 |
| 20260507143404 | 20 | 123 | 9.7 | 19.3 | 0.00 | 0.08 | 0.08 | 56 | 1010.5 |
| 20260507140905 | 18 | 106 | 16.1 | 22.5 | 0.00 | 0.08 | 0.08 | 59 | 1010.7 |
| 20260507140404 | 18 | 118 | 14.5 | 27.4 | 0.00 | 0.08 | 0.08 | 57 | 1010.8 |
| 20260507133904 | 17 | 106 | 9.7 | 27.4 | 0.00 | 0.08 | 0.08 | 69 | 1011.4 |
| 20260507131906 | 17 | 84 | 8.0 | 16.1 | 0.00 | 0.08 | 0.08 | 73 | 1011.6 |
| 20260507131405 | 16 | 89 | 9.7 | 22.5 | 0.00 | 0.08 | 0.08 | 72 | 1011.6 |
| 20260507130904 | 17 | 117 | 11.3 | 19.3 | 0.00 | 0.08 | 0.08 | 70 | 1011.6 |
| 20260507124904 | 17 | 116 | 20.9 | 29.0 | 0.00 | 0.08 | 0.08 | 68 | 1011.7 |
| 20260507123904 | 17 | 100 | 16.1 | 27.4 | 0.00 | 0.08 | 0.08 | 71 | 1012.0 |
| 20260507120404 | 16 | 117 | 19.3 | 33.8 | 0.00 | 0.08 | 0.08 | 71 | 1012.2 |
| 20260507114904 | 16 | 121 | 20.9 | 32.2 | 0.00 | 0.08 | 0.08 | 76 | 1012.1 |
| 20260507114404 | 16 | 117 | 12.9 | 29.0 | 0.00 | 0.08 | 0.08 | 76 | 1012.1 |
| 20260507111404 | 16 | 124 | 16.1 | 25.7 | 0.08 | 0.08 | 0.08 | 75 | 1012.3 |
| 20260507110904 | 16 | 116 | 14.5 | 27.4 | 0.08 | 0.08 | 0.08 | 76 | 1012.2 |
| 20260507110404 | 16 | 110 | 11.3 | 32.2 | 0.08 | 0.08 | 0.08 | 78 | 1012.2 |
| 20260507104904 | 15 | 105 | 14.5 | 20.9 | 0.08 | 0.08 | 0.08 | 81 | 1012.1 |
| 20260507103904 | 15 | 136 | 16.1 | 27.4 | 0.08 | 0.08 | 0.08 | 80 | 1012.3 |
| 20260507103404 | 15 | 118 | 16.1 | 29.0 | 0.08 | 0.08 | 0.08 | 80 | 1012.1 |